Location: Artiguedieu
(43.5000°N, 0.5454°E)
Time: 16:52:15
(UTC+00:00)

Transit 2A Rocket - Pass Details

Date: 31 July 2021
Orbit: 586 x 916 km, 66.7° (Epoch: 21 September)

Event Time Altitude Azimuth Distance (km) Brightness Sun altitude
Rises 12:49:47 0° 161° (SSE) 2,820 8.2 62.9°
Reaches altitude 10° 12:52:56 10° 136° (SE) 1,958 7.4 62.6°
Maximum altitude 12:55:11 14° 104° (ESE) 1,743 7.0 62.4°
Drops below altitude 10° 12:57:32 10° 73° (ENE) 2,036 7.1 62.2°
Sets 13:00:54 0° 49° (NE) 3,019 7.8 62.0°
